sat.trackr.live / text

‹ back to catalog

STARLINK-33550

NORAD 62285 · 2024-237U

PAYLOAD ACTIVE UNKNOWN

§ Identity

Operator
Country
US
Launch date
2024-12-08
Launch site
AFETR
Launch vehicle
Mass (kg)
RCS (m²)

Purposes: comms

External: N2YO · Heavens-Above · Gunter

§ Orbital elements

Epoch: 2026-05-25T01:38:06.717120Z

Period
94.27 min
Inclination
42.9990°
Eccentricity
0.0001399
Mean motion
15.27590604 rev/d
Perigee alt
482.1 km
Apogee alt
484.0 km
Semi-major
6,861.2 km
B*
4.6299e-4
RAAN
144.9567°
Arg perigee
260.6856°
Mean anomaly
99.3837°
Rev number
8,287

§ Raw data

STARLINK-335501 62285U 24237U   26145.06813330  .00012504  00000+0  46299-3 0  99972 62285  42.9990 144.9567 0001399 260.6856  99.3837 15.27590604 82872

JSON: /api/v1/satellites/62285 · /tle

For live sub-satellite position, see the globe view (requires WebGL).

§ Visibility from observer

Set your observer location to see the next 7 days of passes ≥ 10°. The values pass through the URL so the page stays shareable.

No JS? Fill the form by hand. The geolocation button needs JavaScript.